Weather History for Crestview, FL

Change the Weather History Date:

Saturday, January 26, 2013

  Actual Average Record
Temperature  
Mean Temperature 60 °F -  
Max Temperature 71 °F - - ()
Min Temperature 50 °F - - ()
Degree Days  
Heating Degree Days 4    
Growing Degree Days 10 (Base 50)    
Moisture  
Dew Point 54 °F    
Average Humidity 89    
Maximum Humidity 100    
Minimum Humidity 59    
Precipitation  
Precipitation 0.00 in - - ()
Sea Level Pressure  
Sea Level Pressure 30.25 in    
Wind  
Wind Speed 4 mph (WNW)    
Max Wind Speed 9 mph    
Max Gust Speed -    
Visibility 6 miles    
Events      
T = Trace of Precipitation, MM = Missing Value Source: NWS Daily Summary

Daily Weather History Graph

Daily Weather History Graph

Search for Another Location

Airport:

Trip Planner

Search our weather history database for the weather conditions in past years. The results will help you decide how hot, cold, wet, or windy it might be!

Date:

Astronomy

Jan. 26, 2013 Rise Set
Actual Time 6:40 AM CST 5:17 PM CST
Civil Twilight 6:15 AM CST 5:42 PM CST
Nautical Twilight 5:45 AM CST 6:11 PM CST
Astronomical Twilight 5:17 AM CST 6:40 PM CST
Moon 5:08 PM CST (1/26) 6:00 AM CST (1/26)
Length of Visible Light 11h 27m
Length of Day
10h 36m
Full, 100% of the Moon is Illuminated
Jan 26
Full
Jan 26
Full
Feb 3
Last Quarter
Feb 10
New
Feb 17
First Quarter

Hourly Weather History & Observations

Time (CST) Temp. Dew Point Humidity Pressure Visibility Wind Dir Wind Speed Gust Speed Precip Events Conditions
12:55 AM 57.7 °F 55.2 °F 91% 30.19 in 10.0 mi SSW 9.2 mph - N/A   Clear
1:55 AM 59.9 °F 55.0 °F 84% 30.19 in 10.0 mi WSW 6.9 mph - N/A   Clear
2:55 AM 58.3 °F 55.2 °F 90% 30.19 in 10.0 mi SW 4.6 mph - N/A   Clear
3:55 AM 58.1 °F 55.8 °F 92% 30.19 in 10.0 mi WSW 5.8 mph - N/A   Clear
4:55 AM 57.4 °F 55.8 °F 94% 30.20 in 10.0 mi WSW 4.6 mph - N/A   Clear
5:55 AM 57.2 °F 55.2 °F 93% 30.21 in 10.0 mi WSW 4.6 mph - N/A   Clear
6:55 AM 57.6 °F 55.8 °F 94% 30.23 in 10.0 mi West 4.6 mph - N/A   Mostly Cloudy
7:07 AM 57.2 °F 55.4 °F 94% 30.24 in 10.0 mi West 5.8 mph - N/A   Overcast
7:32 AM 59.0 °F 55.4 °F 88% 30.24 in 10.0 mi West 3.5 mph - N/A   Mostly Cloudy
7:55 AM 58.8 °F 56.5 °F 92% 30.24 in 10.0 mi West 4.6 mph - N/A   Scattered Clouds
8:04 AM 59.0 °F 57.2 °F 94% 30.25 in 10.0 mi WNW 5.8 mph - N/A   Mostly Cloudy
8:43 AM 60.8 °F 57.2 °F 88% 30.25 in 10.0 mi West 5.8 mph - N/A   Overcast
8:55 AM 60.8 °F 57.4 °F 88% 30.26 in 10.0 mi WNW 6.9 mph - N/A   Overcast
9:03 AM 60.8 °F 57.2 °F 88% 30.26 in 10.0 mi WNW 9.2 mph - N/A   Overcast
9:55 AM 63.0 °F 57.7 °F 83% 30.27 in 10.0 mi WNW 5.8 mph - N/A   Overcast
10:11 AM 64.4 °F 57.2 °F 77% 30.26 in 10.0 mi NW 6.9 mph - N/A   Scattered Clouds
10:55 AM 67.3 °F 57.9 °F 72% 30.25 in 10.0 mi North 4.6 mph - N/A   Clear
11:55 AM 70.9 °F 57.7 °F 63% 30.23 in 10.0 mi North 9.2 mph - N/A   Partly Cloudy
12:55 PM 70.9 °F 57.0 °F 61% 30.20 in 10.0 mi West 6.9 mph - N/A   Scattered Clouds
1:55 PM 71.4 °F 56.5 °F 59% 30.20 in 10.0 mi NW 8.1 mph - N/A   Overcast
2:55 PM 70.5 °F 57.0 °F 62% 30.20 in 10.0 mi NNW 8.1 mph - N/A   Mostly Cloudy
3:55 PM 69.4 °F 56.5 °F 63% 30.20 in 10.0 mi NNW 5.8 mph - N/A   Clear
4:55 PM 68.2 °F 56.8 °F 67% 30.21 in 10.0 mi NW 4.6 mph - N/A   Overcast
5:55 PM 66.9 °F 57.2 °F 71% 30.22 in 10.0 mi Calm Calm - N/A   Mostly Cloudy
6:55 PM 63.3 °F 56.5 °F 78% 30.23 in 10.0 mi NNW 4.6 mph - N/A   Scattered Clouds
7:55 PM 60.8 °F 56.1 °F 85% 30.24 in 10.0 mi NNE 4.6 mph - N/A   Clear
8:55 PM 58.1 °F 54.9 °F 89% 30.25 in 10.0 mi NNE 4.6 mph - N/A   Clear
9:55 PM 55.9 °F 54.5 °F 95% 30.26 in 10.0 mi Calm Calm - N/A   Clear
10:16 PM 53.6 °F 51.8 °F 94% 30.27 in 2.5 mi Calm Calm - N/A   Clear
10:17 PM 53.6 °F 51.8 °F 94% 30.27 in 2.0 mi Calm Calm - N/A   Clear
10:18 PM 53.6 °F 51.8 °F 94% 30.27 in 1.8 mi Calm Calm - N/A   Clear
10:20 PM 53.6 °F 51.8 °F 94% 30.27 in 1.2 mi Calm Calm - N/A   Clear
10:24 PM 53.6 °F 53.6 °F 100% 30.27 in 1.5 mi Calm Calm - N/A   Clear
10:28 PM 53.6 °F 53.6 °F 100% 30.27 in 2.0 mi Calm Calm - N/A   Clear
10:29 PM 53.6 °F 53.6 °F 100% 30.27 in 2.5 mi Calm Calm - N/A   Clear
10:30 PM 53.6 °F 53.6 °F 100% 30.27 in 2.0 mi Calm Calm - N/A   Clear
10:31 PM 53.6 °F 53.6 °F 100% 30.27 in 1.8 mi Calm Calm - N/A   Clear
10:33 PM 53.6 °F 53.6 °F 100% 30.27 in 1.2 mi Calm Calm - N/A   Clear
10:36 PM 53.6 °F 53.6 °F 100% 30.27 in 1.0 mi Calm Calm - N/A   Clear
10:51 PM 51.8 °F 51.8 °F 100% 30.27 in 1.2 mi Calm Calm - N/A   Clear
10:55 PM 52.5 °F 52.0 °F 98% 30.27 in 1.5 mi Calm Calm - N/A   Clear
11:05 PM 51.8 °F 51.8 °F 100% 30.27 in 2.5 mi Calm Calm - N/A   Clear
11:07 PM 51.8 °F 51.8 °F 100% 30.27 in 3.0 mi Calm Calm - N/A   Clear
11:19 PM 51.8 °F 51.8 °F 100% 30.27 in 2.5 mi Calm Calm - N/A   Clear
11:20 PM 51.8 °F 50.0 °F 94% 30.27 in 2.0 mi Calm Calm - N/A   Clear
11:22 PM 51.8 °F 50.0 °F 94% 30.27 in 1.8 mi Calm Calm - N/A   Clear
11:27 PM 51.8 °F 50.0 °F 94% 30.27 in 2.0 mi Calm Calm - N/A   Clear
11:28 PM 51.8 °F 50.0 °F 94% 30.27 in 2.5 mi Calm Calm - N/A   Clear
11:29 PM 51.8 °F 51.8 °F 100% 30.27 in 3.0 mi Calm Calm - N/A   Clear
11:55 PM 50.7 °F 50.2 °F 98% 30.27 in 3.0 mi Calm Calm - N/A   Clear
11:56 PM 50.0 °F 50.0 °F 100% 30.27 in 2.5 mi Calm Calm - N/A   Clear
11:59 PM 50.0 °F 50.0 °F 100% 30.27 in 2.0 mi Calm Calm - N/A   Clear